CW1828 Weather Reports


time (UTC)temp
C
wind
direction
speed
KPH
gust
KPH
rain 1hr
cm
rain 24hr
cm
rain mn
cm
humidity
%
barometer
mb
20260507075805 18 165 1.6 4.8 0.00 0.00 0.00 28 1011.9
20260507075306 18 274 3.2 4.8 0.00 0.00 0.00 28 1011.9
20260507074804 19 274 3.2 4.8 0.00 0.00 0.00 27 1012.0
20260507074303 19 113 3.2 4.8 0.00 0.00 0.00 28 1011.9
20260507073804 20 253 4.8 4.8 0.00 0.00 0.00 27 1011.9
20260507073304 20 197 6.4 9.7 0.00 0.00 0.00 27 1011.8
20260507072804 20 141 4.8 4.8 0.00 0.00 0.00 28 1011.9
20260507071304 20 232 4.8 8.0 0.00 0.00 0.00 27 1011.9
20260507070804 20 218 6.4 9.7 0.00 0.00 0.00 27 1011.9
20260507065306 20 225 8.0 16.1 0.00 0.00 0.00 28 1011.9
20260507064804 20 221 11.3 14.5 0.00 0.00 0.00 29 1012.0
20260507064304 20 223 11.3 19.3 0.00 0.00 0.00 29 1011.9
20260507063804 20 225 11.3 19.3 0.00 0.00 0.00 29 1011.9
20260507063304 20 223 11.3 16.1 0.00 0.00 0.00 29 1012.0
20260507061803 21 222 11.3 16.1 0.00 0.00 0.00 28 1012.0
20260507061304 21 228 11.3 19.3 0.00 0.00 0.00 28 1012.0
20260507060804 21 234 11.3 16.1 0.00 0.00 0.00 28 1012.0
20260507055804 21 240 11.3 19.3 0.00 0.00 0.00 27 1012.0
20260507054304 21 252 8.0 12.9 0.00 0.00 0.00 26 1012.1
20260507053804 21 237 9.7 16.1 0.00 0.00 0.00 26 1012.1
20260507053304 21 244 9.7 14.5 0.00 0.00 0.00 27 1012.1
20260507052804 21 239 11.3 16.1 0.00 0.00 0.00 27 1012.1
20260507051803 21 227 12.9 19.3 0.00 0.00 0.00 27 1012.1
20260507051304 21 230 11.3 16.1 0.00 0.00 0.00 27 1012.2
20260507045803 21 242 11.3 19.3 0.00 0.00 0.00 28 1012.1
20260507045306 21 237 12.9 19.3 0.00 0.00 0.00 28 1012.1
20260507044804 21 239 11.3 19.3 0.00 0.00 0.00 28 1012.1
20260507043304 21 237 12.9 16.1 0.00 0.00 0.00 29 1012.0
20260507042804 21 229 11.3 19.3 0.00 0.00 0.00 30 1012.0
20260507042306 21 228 12.9 19.3 0.00 0.00 0.00 30 1012.0
20260507041804 21 224 14.5 19.3 0.00 0.00 0.00 30 1012.0
20260507041304 20 225 11.3 19.3 0.00 0.00 0.00 30 1011.9
20260507040804 20 230 11.3 14.5 0.00 0.00 0.00 31 1011.9
20260507040304 20 227 11.3 19.3 0.00 0.00 0.00 31 1011.9
20260507035804 20 218 12.9 16.1 0.00 0.00 0.00 31 1011.8
20260507035306 20 221 11.3 19.3 0.00 0.00 0.00 32 1011.8
20260507034804 21 221 14.5 19.3 0.00 0.00 0.00 32 1011.8
20260507034304 21 218 11.3 19.3 0.00 0.00 0.00 32 1011.7
20260507033804 21 217 11.3 14.5 0.00 0.00 0.00 31 1011.7
20260507033304 21 217 11.3 16.1 0.00 0.00 0.00 31 1011.5
20260507032804 21 227 9.7 14.5 0.00 0.00 0.00 32 1011.5
20260507032306 21 219 11.3 19.3 0.00 0.00 0.00 32 1011.5
20260507031303 21 216 11.3 16.1 0.00 0.00 0.00 32 1011.4
20260507030804 21 214 14.5 19.3 0.00 0.00 0.00 32 1011.3
20260507030304 21 208 14.5 19.3 0.00 0.00 0.00 32 1011.2
20260507025803 21 231 9.7 20.9 0.00 0.00 0.00 32 1011.2
20260507024804 21 217 12.9 19.3 0.00 0.00 0.00 30 1011.2
20260507024304 22 206 14.5 20.9 0.00 0.00 0.00 29 1011.1
20260507023803 22 243 9.7 16.1 0.00 0.00 0.00 29 1011.0
20260507023304 22 218 9.7 14.5 0.00 0.00 0.00 29 1011.0
20260507022804 22 211 9.7 19.3 0.00 0.00 0.00 28 1011.0
20260507022306 23 195 12.9 16.1 0.00 0.00 0.00 27 1011.1
20260507021803 23 197 4.8 8.0 0.00 0.00 0.00 24 1011.1
20260507021304 23 326 4.8 11.3 0.00 0.00 0.00 22 1011.1
20260507020804 23 327 6.4 9.7 0.00 0.00 0.00 21 1011.1
20260507020304 23 324 4.8 9.7 0.00 0.00 0.00 21 1011.1
20260507015306 24 354 8.0 11.3 0.00 0.00 0.00 20 1011.0
20260507014804 24 345 11.3 19.3 0.00 0.00 0.00 20 1011.0
20260507013804 25 335 8.0 12.9 0.00 0.00 0.00 19 1011.0
20260507013304 25 326 11.3 14.5 0.00 0.00 0.00 19 1011.0
20260507012804 25 348 12.9 19.3 0.00 0.00 0.00 18 1011.1
20260507012306 25 351 11.3 19.3 0.00 0.00 0.00 19 1011.0
20260507011803 25 340 9.7 14.5 0.00 0.00 0.00 17 1011.1
20260507011304 25 320 12.9 20.9 0.00 0.00 0.00 18 1011.0
20260507010804 25 0 9.7 19.3 0.00 0.00 0.00 19 1010.9
20260507010304 25 8 8.0 14.5 0.00 0.00 0.00 20 1010.9
20260507005804 25 127 1.6 8.0 0.00 0.00 0.00 20 1010.8
20260507005305 25 90 3.2 8.0 0.00 0.00 0.00 20 1010.8
20260507004304 25 335 8.0 14.5 0.00 0.00 0.00 20 1011.0
20260507003804 25 350 12.9 20.9 0.00 0.00 0.00 20 1011.0
20260507003304 25 320 11.3 16.1 0.00 0.00 0.00 20 1010.9
20260507002803 25 342 11.3 20.9 0.00 0.00 0.00 20 1010.9
20260507002306 26 39 3.2 8.0 0.00 0.00 0.00 20 1011.0
20260507001803 26 14 6.4 12.9 0.00 0.00 0.00 20 1011.0
20260507001304 26 353 4.8 11.3 0.00 0.00 0.00 20 1011.0
20260507000804 26 27 6.4 12.9 0.00 0.00 0.00 20 1011.0
20260507000306 25 22 9.7 19.3 0.00 0.00 0.00 21 1010.9
20260506235803 25 321 1.6 14.5 0.00 0.00 0.00 20 1010.9
20260506235306 25 349 11.3 19.3 0.00 0.00 0.00 20 1011.0
20260506234804 25 331 4.8 16.1 0.00 0.00 0.00 21 1010.9
20260506234304 25 94 4.8 11.3 0.00 0.00 0.00 21 1010.8
20260506233303 25 11 8.0 19.3 0.00 0.00 0.00 21 1011.0
20260506232804 25 357 14.5 22.5 0.00 0.00 0.00 21 1011.0
20260506231804 25 24 6.4 11.3 0.00 0.00 0.00 21 1011.0
20260506231304 25 313 4.8 12.9 0.00 0.00 0.00 22 1011.1
20260506230803 25 22 8.0 12.9 0.00 0.00 0.00 22 1011.1
20260506230304 25 309 3.2 12.9 0.00 0.00 0.00 22 1011.1
20260506225804 25 346 11.3 22.5 0.00 0.00 0.00 22 1011.3
20260506225306 25 307 3.2 11.3 0.00 0.00 0.00 22 1011.3
20260506223803 25 24 8.0 16.1 0.00 0.00 0.00 22 1011.4
20260506223304 25 340 11.3 27.4 0.00 0.00 0.00 22 1011.5
20260506222306 25 334 12.9 24.1 0.00 0.00 0.00 22 1011.5
20260506221804 25 7 16.1 24.1 0.00 0.00 0.00 22 1011.7
20260506221304 25 347 11.3 22.5 0.00 0.00 0.00 23 1011.7
20260506220804 25 346 11.3 24.1 0.00 0.00 0.00 23 1011.7
20260506220304 25 1 11.3 22.5 0.00 0.00 0.00 23 1011.9
20260506215804 25 13 9.7 20.9 0.00 0.00 0.00 23 1012.0
20260506215306 25 344 14.5 22.5 0.00 0.00 0.00 23 1012.1
20260506214803 25 328 8.0 19.3 0.00 0.00 0.00 23 1012.0
20260506214304 25 345 11.3 22.5 0.00 0.00 0.00 23 1012.2
20260506213803 24 318 14.5 25.7 0.00 0.00 0.00 23 1012.2
20260506213303 24 350 16.1 20.9 0.00 0.00 0.00 24 1012.3
20260506212804 24 344 16.1 22.5 0.00 0.00 0.00 24 1012.4
20260506212306 24 329 16.1 25.7 0.00 0.00 0.00 24 1012.4
20260506211804 24 357 9.7 14.5 0.00 0.00 0.00 24 1012.5
20260506211303 24 233 6.4 19.3 0.00 0.00 0.00 24 1012.5
20260506210804 24 340 14.5 24.1 0.00 0.00 0.00 24 1012.5
20260506210303 24 330 14.5 25.7 0.00 0.00 0.00 24 1012.6
20260506205804 25 2 9.7 25.7 0.00 0.00 0.00 23 1012.6
20260506205306 25 349 6.4 20.9 0.00 0.00 0.00 23 1012.7
20260506204804 25 153 1.6 9.7 0.00 0.00 0.00 24 1012.6
20260506204303 25 185 8.0 12.9 0.00 0.00 0.00 24 1012.8
20260506203803 24 103 4.8 14.5 0.00 0.00 0.00 24 1012.9
20260506203304 24 5 11.3 20.9 0.00 0.00 0.00 24 1013.0
20260506202306 23 156 3.2 14.5 0.00 0.00 0.00 25 1013.0
20260506201804 23 16 9.7 14.5 0.00 0.00 0.00 25 1013.2
20260506200803 23 46 4.8 19.3 0.00 0.00 0.00 25 1013.2
20260506200304 23 19 8.0 14.5 0.00 0.00 0.00 25 1013.3
20260506195803 23 34 4.8 8.0 0.00 0.00 0.00 25 1013.3
20260506195306 23 70 8.0 14.5 0.00 0.00 0.00 25 1013.5
20260506194803 23 75 3.2 11.3 0.00 0.00 0.00 26 1013.5
20260506194303 22 0 6.4 12.9 0.00 0.00 0.00 26 1013.6
20260506193804 22 21 6.4 16.1 0.00 0.00 0.00 26 1013.6
20260506192804 22 4 9.7 19.3 0.00 0.00 0.00 26 1013.6
20260506192305 22 28 6.4 12.9 0.00 0.00 0.00 26 1013.6
20260506191804 22 24 8.0 16.1 0.00 0.00 0.00 26 1013.7
20260506191304 22 27 4.8 19.3 0.00 0.00 0.00 26 1013.7
20260506190304 22 4 8.0 9.7 0.00 0.00 0.00 26 1013.8
20260506185803 22 11 8.0 14.5 0.00 0.00 0.00 26 1013.9
20260506185306 22 13 4.8 20.9 0.00 0.00 0.00 26 1013.9
20260506184804 22 19 11.3 19.3 0.00 0.00 0.00 26 1014.0
20260506183803 22 7 4.8 19.3 0.00 0.00 0.00 27 1014.1
20260506183303 22 20 6.4 12.9 0.00 0.00 0.00 27 1014.2
20260506182803 22 25 8.0 16.1 0.00 0.00 0.00 28 1014.2
20260506182306 22 103 3.2 8.0 0.00 0.00 0.00 28 1014.2
20260506181804 21 58 4.8 11.3 0.00 0.00 0.00 29 1014.3
20260506181303 21 73 8.0 12.9 0.00 0.00 0.00 29 1014.3
20260506180804 21 122 3.2 12.9 0.00 0.00 0.00 30 1014.3
20260506180304 21 87 8.0 12.9 0.00 0.00 0.00 30 1014.2
20260506175804 20 53 1.6 8.0 0.00 0.00 0.00 30 1014.3
20260506175306 20 348 6.4 16.1 0.00 0.00 0.00 31 1014.3
20260506174804 20 16 3.2 9.7 0.00 0.00 0.00 30 1014.2
20260506174303 20 334 9.7 16.1 0.00 0.00 0.00 30 1014.2
20260506173804 20 337 9.7 16.1 0.00 0.00 0.00 30 1014.2
20260506173304 20 322 6.4 16.1 0.00 0.00 0.00 30 1014.2
20260506172803 20 75 3.2 4.8 0.00 0.00 0.00 30 1014.2
20260506171804 20 38 4.8 12.9 0.00 0.00 0.00 30 1014.1
20260506171304 20 38 3.2 8.0 0.00 0.00 0.00 30 1014.1
20260506170804 20 27 1.6 8.0 0.00 0.00 0.00 31 1014.1
20260506170304 19 64 4.8 11.3 0.00 0.00 0.00 31 1014.0
20260506165804 19 1 4.8 9.7 0.00 0.00 0.00 31 1014.0
20260506164804 19 20 3.2 8.0 0.00 0.00 0.00 31 1014.0
20260506164304 19 352 8.0 12.9 0.00 0.00 0.00 31 1014.0
20260506163804 19 353 4.8 11.3 0.00 0.00 0.00 31 1014.0
20260506163304 19 70 3.2 9.7 0.00 0.00 0.00 31 1014.0
20260506162804 18 7 4.8 14.5 0.00 0.00 0.00 31 1013.9
20260506162306 19 23 4.8 12.9 0.00 0.00 0.00 31 1013.9
20260506161803 19 304 3.2 12.9 0.00 0.00 0.00 30 1013.8
20260506161304 18 330 3.2 4.8 0.00 0.00 0.00 31 1013.8
20260506160804 18 22 3.2 8.0 0.00 0.00 0.00 31 1013.8
20260506160303 18 42 1.6 4.8 0.00 0.00 0.00 32 1013.8
20260506155803 18 47 3.2 4.8 0.00 0.00 0.00 32 1013.7
20260506155306 17 22 3.2 8.0 0.00 0.00 0.00 32 1013.7
20260506154804 17 24 3.2 4.8 0.00 0.00 0.00 34 1013.7
20260506154304 17 345 4.8 9.7 0.00 0.00 0.00 33 1013.7
20260506153804 17 17 3.2 4.8 0.00 0.00 0.00 34 1013.7
20260506153303 17 8 3.2 8.0 0.00 0.00 0.00 34 1013.6
20260506152804 17 0 4.8 8.0 0.00 0.00 0.00 35 1013.6
20260506152306 17 72 3.2 4.8 0.00 0.00 0.00 35 1013.6
20260506151804 17 347 3.2 9.7 0.00 0.00 0.00 36 1013.6
20260506151303 16 38 3.2 4.8 0.00 0.00 0.00 36 1013.6
20260506150804 16 12 1.6 4.8 0.00 0.00 0.00 38 1013.6
20260506150305 16 95 4.8 9.7 0.00 0.00 0.00 37 1013.6
20260506145804 15 97 3.2 8.0 0.00 0.00 0.00 40 1013.7
20260506145305 15 1 3.2 4.8 0.00 0.00 0.00 41 1013.6
20260506144804 14 1 1.6 4.8 0.00 0.00 0.00 42 1013.7
20260506144304 14 1 1.6 4.8 0.00 0.00 0.00 43 1013.7
20260506143304 13 41 3.2 4.8 0.00 0.00 0.00 44 1013.6
20260506142803 13 41 0.0 1.6 0.00 0.00 0.00 45 1013.6
20260506142306 13 41 1.6 4.8 0.00 0.00 0.00 47 1013.6
20260506141804 12 278 0.0 3.2 0.00 0.00 0.00 49 1013.5
20260506141304 12 278 0.0 0.0 0.00 0.00 0.00 50 1013.5
20260506140304 11 278 0.0 1.6 0.00 0.00 0.00 51 1013.3
20260506135804 11 278 1.6 3.2 0.00 0.00 0.00 51 1013.3
20260506135306 11 278 1.6 4.8 0.00 0.00 0.00 52 1013.2
20260506134804 11 278 1.6 3.2 0.00 0.00 0.00 52 1013.1
20260506133804 10 278 3.2 4.8 0.00 0.00 0.00 53 1012.9
20260506133303 10 278 3.2 4.8 0.00 0.00 0.00 54 1012.9
20260506132804 10 278 1.6 3.2 0.00 0.00 0.00 54 1012.8
20260506132307 10 278 3.2 4.8 0.00 0.00 0.00 54 1012.7
20260506131804 10 174 0.0 1.6 0.00 0.00 0.00 54 1012.7
20260506131304 10 174 1.6 3.2 0.00 0.00 0.00 54 1012.7
20260506130804 10 174 0.0 1.6 0.00 0.00 0.00 54 1012.7
20260506130303 10 174 1.6 3.2 0.00 0.00 0.00 53 1012.6
20260506125803 10 174 3.2 4.8 0.00 0.00 0.00 53 1012.5
20260506125305 10 161 3.2 4.8 0.00 0.00 0.00 53 1012.5
20260506124804 10 161 4.8 4.8 0.00 0.00 0.00 53 1012.5
20260506124304 10 259 3.2 4.8 0.00 0.00 0.00 53 1012.4
20260506123804 10 259 3.2 4.8 0.00 0.00 0.00 53 1012.4
20260506123303 10 259 4.8 4.8 0.00 0.00 0.00 54 1012.3
20260506122803 10 259 3.2 4.8 0.00 0.00 0.00 54 1012.3
20260506122306 9 259 3.2 4.8 0.00 0.00 0.00 55 1012.2
20260506121303 9 232 4.8 4.8 0.00 0.00 0.00 54 1012.2
20260506120304 10 266 1.6 3.2 0.00 0.00 0.00 52 1012.2
20260506115803 10 266 1.6 3.2 0.00 0.00 0.00 53 1012.1
20260506115306 10 266 0.0 3.2 0.00 0.00 0.00 53 1012.1
20260506114803 10 266 3.2 4.8 0.00 0.00 0.00 53 1012.1
20260506114304 10 266 3.2 4.8 0.00 0.00 0.00 53 1012.1
20260506113804 10 157 0.0 1.6 0.00 0.00 0.00 53 1012.0
20260506113304 10 157 1.6 4.8 0.00 0.00 0.00 53 1011.9
20260506112804 10 157 4.8 8.0 0.00 0.00 0.00 53 1011.9
20260506112306 10 182 3.2 4.8 0.00 0.00 0.00 52 1011.9
20260506111804 10 216 0.0 0.0 0.00 0.00 0.00 52 1011.9
20260506111304 10 216 3.2 4.8 0.00 0.00 0.00 52 1011.9
20260506110304 10 216 4.8 4.8 0.00 0.00 0.00 50 1011.9
20260506105804 10 258 1.6 3.2 0.00 0.00 0.00 50 1011.8
20260506105305 10 258 3.2 4.8 0.00 0.00 0.00 50 1011.8
20260506104803 11 258 1.6 4.8 0.00 0.00 0.00 50 1011.8
20260506104303 11 258 3.2 4.8 0.00 0.00 0.00 50 1011.7
20260506103804 11 229 0.0 0.0 0.00 0.00 0.00 50 1011.7
20260506103304 11 229 0.0 0.0 0.00 0.00 0.00 50 1011.8
20260506102804 11 229 0.0 0.0 0.00 0.00 0.00 49 1011.6
20260506102305 11 229 0.0 1.6 0.00 0.00 0.00 50 1011.6
20260506101304 11 229 1.6 4.8 0.00 0.00 0.00 49 1011.6
20260506100803 11 257 3.2 4.8 0.00 0.00 0.00 49 1011.5
20260506100304 11 302 3.2 4.8 0.00 0.00 0.00 50 1011.5
20260506095804 11 300 3.2 4.8 0.00 0.00 0.00 49 1011.4
20260506094804 11 223 0.0 3.2 0.00 0.00 0.00 49 1011.3
20260506093803 11 219 4.8 9.7 0.00 0.00 0.00 50 1011.2
20260506093304 11 222 6.4 9.7 0.00 0.00 0.00 50 1011.3
20260506092804 11 201 6.4 8.0 0.00 0.00 0.00 50 1011.3
20260506092306 11 208 4.8 8.0 0.00 0.00 0.00 49 1011.2
20260506091804 11 214 4.8 4.8 0.00 0.00 0.00 49 1011.3
20260506090804 11 214 3.2 4.8 0.00 0.00 0.00 49 1011.4
20260506090304 11 214 0.0 4.8 0.00 0.00 0.00 49 1011.5
20260506085804 11 214 1.6 8.0 0.00 0.00 0.00 49 1011.6
20260506084804 11 186 4.8 4.8 0.00 0.00 0.00 49 1011.6
20260506084304 11 226 1.6 3.2 0.00 0.00 0.00 49 1011.6
20260506083804 11 227 0.0 1.6 0.00 0.00 0.00 49 1011.5
20260506083304 11 227 0.0 3.2 0.00 0.00 0.00 49 1011.6
20260506082305 11 214 4.8 8.0 0.00 0.00 0.00 49 1011.5
20260506081803 11 167 4.8 8.0 0.00 0.00 0.00 49 1011.5
20260506081304 11 170 6.4 8.0 0.00 0.00 0.00 50 1011.5
20260506080304 11 183 4.8 8.0 0.00 0.00 0.00 50 1011.6